Location: Coopersdale
(40.3556°N, 78.9372°W)
Time: 09:32:27
(UTC+00:00)

Vanguard 2 Rocket - Visible Passes

Search period start: 24 January 2021 00:00
Search period end: 03 February 2021 00:00
Orbit: 554 x 3325 km, 32.9° (Epoch: 23 January)

Date Brightness Start Highest point End Pass type
(mag) Time Alt. Az. Time Alt. Az. Time Alt. Az.
24 Jan 8.5 01:20:51 10° WSW 01:25:21 22° SW 01:25:21 22° SW visible
25 Jan 8.1 00:19:24 10° W 00:26:33 34° SSW 00:29:19 21° SSE visible
25 Jan 8.3 23:17:43 10° W 23:27:07 45° SSW 23:32:41 10° ESE visible
26 Jan 8.9 01:35:33 10° WSW 01:39:04 15° SW 01:39:08 15° SW visible
27 Jan 8.5 00:33:30 10° W 00:40:01 26° SSW 00:43:10 16° SSE visible
27 Jan 8.6 23:31:34 10° W 23:40:44 39° SSW 23:46:17 10° SE visible
29 Jan 9.0 00:47:59 10° W 00:53:18 19° SW 00:57:10 10° S visible
29 Jan 9.0 23:45:34 10° W 23:54:09 31° SSW 23:59:35 10° SSE visible
31 Jan 9.5 01:03:40 10° WSW 01:06:21 12° SW 01:08:39 10° SSW visible
31 Jan 9.3 23:59:55 10° W 00:07:19 23° SW 00:12:25 10° S visible
01 Feb 9.4 22:57:07 10° W 23:07:58 35° SSW 23:14:37 10° SSE visible
